Wind_Speed
19 19 18 17 16 15 14 13 12 10 9 7 6 6 5 5 5 4 4 4 5 6 7 8 8 9 9 9 10 11 11 10 9 8 8 8 9 10 10 9 5 3 4 7 7 8 11 13 11 10 12 12 12 12 11 11 10 9 9 9 9 9 9
18 18 19 18 17 16 14 13 12 10 9 8 7 7 6 6 6 5 4 4 4 4 5 6 7 8 8 9 9 10 10 10 9 9 9 9 9 9 9 10 9 5 3 5 7 8 9 12 13 14 16 15 14 13 12 12 11 10 10 11 11 10 10
20 20 20 19 18 16 15 13 12 11 10 9 8 8 7 7 6 5 5 4 4 3 3 4 5 5 6 7 8 9 9 9 9 9 9 9 10 9 8 10 11 8 6 6 8 10 10 10 13 16 16 14 14 15 14 14 14 13 12 12 11 11 9
22 21 21 20 18 17 15 14 13 12 10 9 9 9 8 7 7 6 5 5 4 4 3 4 5 5 5 6 7 8 8 8 8 9 9 8 9 10 10 10 10 10 10 8 7 9 10 9 13 16 13 12 14 16 15 14 13 13 12 11 10 9 8
21 21 20 19 18 17 15 13 13 11 10 9 9 9 8 7 7 6 6 6 5 4 3 3 4 4 5 5 6 6 7 7 8 8 8 8 9 9 10 10 10 9 10 7 5 8 10 10 12 16 14 12 14 15 14 13 12 11 10 10 8 7 7
20 20 19 18 18 16 14 13 12 11 10 9 9 9 8 8 7 7 7 7 6 5 4 3 3 3 4 4 5 5 5 5 6 7 7 8 9 9 9 9 10 9 8 6 4 6 10 11 12 16 14 12 14 15 14 12 11 10 9 9 8 7 7
18 18 18 18 18 16 14 13 12 11 11 10 10 8 7 7 7 8 9 8 7 6 5 3 2 3 4 5 6 6 6 6 6 6 6 8 9 10 9 9 10 9 8 6 5 6 9 10 13 16 14 12 13 14 12 11 11 9 9 9 9 9 9
16 16 17 17 17 16 14 13 12 12 11 10 10 9 8 7 7 8 10 10 9 7 5 4 3 3 4 5 7 7 7 6 6 5 5 7 8 9 9 10 10 10 9 8 7 7 8 9 12 14 14 14 15 14 11 11 10 8 9 11 10 11 11
15 16 17 16 15 15 13 13 12 11 10 10 9 9 8 7 8 9 10 10 9 7 5 4 3 4 5 6 7 6 6 5 5 5 5 6 7 8 9 10 11 11 11 10 9 9 8 9 10 11 14 13 11 13 13 10 9 8 10 12 11 12 12
15 15 15 15 15 14 13 12 11 11 10 9 8 7 8 8 8 8 9 9 8 7 5 3 3 3 5 6 6 5 4 4 4 5 5 6 6 7 8 9 10 12 12 11 10 10 10 10 10 10 14 10 4 9 14 12 10 10 11 13 12 12 11
15 14 14 14 14 14 13 12 11 10 9 8 7 6 6 7 7 7 8 8 7 7 5 4 3 3 4 6 6 4 3 3 3 4 5 5 5 7 8 9 10 12 13 11 10 11 11 11 10 11 14 10 1 5 12 12 12 12 12 13 12 12 11
15 15 14 13 13 13 12 12 11 9 9 7 6 5 5 6 6 6 6 6 6 7 6 5 4 3 4 5 5 4 3 3 3 3 3 2 3 4 6 7 10 11 13 12 11 12 13 12 11 11 12 9 1 1 8 11 13 14 14 14 12 12 11
16 15 14 12 12 12 11 10 10 9 8 7 5 4 4 5 6 6 5 4 5 7 6 6 5 4 4 5 5 5 4 3 3 3 3 2 1 0 2 5 9 11 13 13 12 13 13 13 12 11 11 8 1 3 8 11 13 14 15 14 12 11 11
16 16 13 12 12 13 12 11 10 8 7 6 4 3 3 4 5 5 4 4 5 7 6 5 6 6 6 6 6 6 6 4 4 4 4 3 3 3 2 3 7 10 12 14 13 13 14 13 12 11 10 7 4 7 11 12 12 13 13 13 12 12 11
16 16 13 13 14 14 13 11 9 8 6 4 3 3 3 4 4 4 3 4 5 6 5 5 6 8 7 8 8 8 7 6 5 5 4 4 4 4 4 2 5 8 11 13 13 13 13 13 12 10 9 8 7 9 11 11 11 10 10 10 10 11 11
17 16 13 14 16 15 13 11 9 7 6 4 3 3 4 3 4 4 3 4 5 5 4 4 6 8 8 8 8 8 8 7 7 6 6 5 5 5 4 2 4 8 11 13 13 13 12 12 10 9 9 9 9 10 10 10 9 8 8 7 8 9 10
18 17 14 16 17 15 13 11 10 8 6 5 4 4 4 4 4 4 4 4 4 4 3 3 6 9 9 8 8 8 9 8 8 7 7 6 5 4 4 3 4 8 11 12 13 13 12 11 10 9 9 9 8 9 9 9 8 8 8 7 7 9 10
20 18 16 17 16 14 13 12 11 9 8 7 6 5 5 5 5 4 4 5 5 4 3 3 5 8 8 8 7 7 8 8 8 8 7 6 5 5 5 4 6 9 11 12 12 12 12 11 9 9 8 7 7 7 8 8 9 10 9 9 9 9 10
21 18 16 17 16 14 13 12 11 10 10 9 9 9 9 9 9 8 7 6 6 5 4 5 6 6 7 7 7 6 6 7 8 8 7 6 5 6 5 5 6 9 11 11 11 11 10 9 8 7 6 6 6 7 8 10 11 12 12 12 12 12 11
17 16 16 17 17 16 14 13 12 12 13 13 13 13 12 11 11 11 11 10 9 8 6 6 6 5 6 6 6 5 5 6 7 8 8 7 5 6 6 6 7 9 10 10 10 9 8 7 6 6 5 6 7 9 10 12 13 14 15 15 15 15 15
18 19 19 19 19 17 16 14 12 13 14 14 14 13 11 11 11 10 11 11 10 9 8 7 6 4 4 4 4 4 4 5 7 8 8 8 6 6 7 8 7 8 9 9 9 9 8 7 5 5 6 7 8 8 10 11 13 15 17 18 18 18 17
21 21 21 21 20 18 16 15 14 14 14 13 13 11 9 8 9 9 9 9 8 7 6 5 6 5 4 4 3 3 3 3 5 7 8 8 6 6 7 9 9 9 9 9 8 8 8 8 7 7 7 7 6 6 7 8 9 10 12 14 17 17 18
21 21 22 23 20 17 16 14 11 10 10 9 8 9 8 7 8 9 9 8 7 6 5 5 5 5 5 5 4 4 4 3 3 6 7 7 6 6 7 8 10 10 10 10 9 9 9 9 9 9 8 8 7 6 6 6 7 8 9 11 13 15 16
18 19 21 20 14 9 9 10 10 11 10 10 10 10 10 8 8 8 8 7 6 5 5 4 4 4 4 5 5 5 5 5 4 5 6 5 5 6 6 7 8 9 10 10 10 10 10 10 10 10 9 9 9 8 8 8 9 9 10 12 13 15 16
15 14 15 14 11 9 10 11 11 11 10 11 11 11 11 10 8 8 8 7 6 5 5 4 4 4 3 4 4 5 5 6 6 6 6 6 5 6 6 7 7 8 9 9 10 10 11 11 11 11 11 11 11 12 12 12 12 13 13 14 16 17 18
14 14 13 13 12 12 13 12 12 12 12 11 11 11 11 10 9 8 8 7 7 6 6 5 5 4 3 3 3 4 4 5 6 6 6 7 7 7 7 8 8 9 9 9 10 11 11 12 13 13 13 13 13 14 14 15 15 15 16 17 18 19 19
11 13 13 13 13 14 14 14 13 13 12 11 10 10 10 9 9 8 8 8 7 7 7 7 6 6 5 5 5 5 5 5 6 7 7 7 8 8 8 9 9 10 10 10 11 11 12 12 13 13 14 14 14 14 14 15 15 15 15 17 18 19 19
10 10 10 9 9 11 12 12 12 12 11 10 10 10 9 9 8 8 8 8 8 8 8 8 7 7 7 7 7 7 7 8 8 8 9 10 10 11 11 11 12 12 12 12 13 13 14 15 15 15 15 15 15 15 15 15 15 15 15 16 17 18 18
11 10 8 7 7 7 8 8 9 9 9 8 8 8 8 7 7 7 8 8 8 9 9 9 9 9 9 9 9 9 10 10 10 11 12 12 13 13 13 14 14 15 15 15 15 16 17 18 18 18 19 18 19 18 18 18 18 18 18 18 19 19 20
14 13 11 9 8 8 7 7 6 7 6 6 5 5 6 6 6 7 7 8 9 10 10 11 11 11 12 12 12 13 13 14 14 14 15 15 16 16 16 17 17 18 18 18 19 20 20 21 21 21 22 22 22 22 22 22 22 22 22 22 23 22 22
15 14 13 12 11 9 8 7 7 6 5 4 4 4 4 4 5 6 6 7 8 9 10 11 11 12 12 12 13 14 14 15 16 16 17 17 18 18 19 19 20 20 21 21 22 23 23 24 24 24 24 24 25 25 25 25 26 26 26 26 25 25 25
12 11 10 10 10 8 7 7 6 5 4 4 3 3 3 4 4 5 6 7 8 9 10 11 12 12 13 13 13 14 14 15 16 17 17 18 18 18 19 20 20 21 22 22 23 24 24 25 25 26 26 27 27 28 27 27 27 26 26 26 26 25 26
7 7 6 5 4 4 3 1 1 1 2 3 4 5 5 6 7 8 9 10 11 12 13 14 15 15 16 17 17 17 18 19 19 20 20 20 21 21 20 21 21 21 22 23 23 24 25 25 25 26 27 28 29 29 28 27 27 26 25 26 26 25 25
4 3 2 1 1 1 2 4 5 5 6 6 7 7 8 9 10 11 12 13 14 15 16 16 17 18 19 20 21 21 23 23 24 25 25 25 25 26 25 25 25 24 24 24 24 25 25 26 26 27 28 28 28 28 28 28 28 26 26 25 25 25 25
5 4 4 3 4 4 5 6 8 8 9 10 10 10 10 11 11 12 13 14 15 16 17 18 19 20 21 22 22 23 24 25 27 27 28 28 28 28 29 29 28 28 28 28 27 27 28 28 29 29 29 28 28 28 28 27 26 26 25 25 25 25 24
3 3 3 4 4 5 6 7 8 9 10 11 12 12 13 13 13 14 14 15 16 17 18 19 20 22 23 24 25 25 25 26 27 28 29 29 30 30 31 31 31 31 31 30 30 29 29 30 31 31 30 29 29 30 30 29 28 27 26 26 26 25 25
3 3 4 4 5 5 6 7 8 9 10 11 12 13 14 14 14 15 15 16 16 17 18 18 19 21 22 23 24 26 26 27 27 28 29 30 30 31 32 32 33 33 33 33 33 32 31 30 31 31 30 30 31 31 32 31 30 28 27 27 27 26 26
Wind_Direction
184 178 173 171 169 169 171 171 169 167 165 164 164 172 178 183 184 179 184 193 201 201 191 192 198 196 191 189 188 189 193 193 188 190 196 201 209 211 206 199 187 152 161 188 194 180 158 145 146 150 145 147 152 151 147 145 145 143 139 131 125 124 125
178 172 167 167 167 167 168 165 164 161 157 156 161 171 182 186 186 179 175 176 188 194 188 189 197 203 200 196 194 195 200 201 196 194 195 196 203 213 211 203 200 194 187 187 184 189 175 153 151 154 147 147 146 142 141 140 137 136 134 129 126 125 122
172 170 167 167 167 165 165 161 156 153 149 146 150 161 169 175 178 177 172 170 174 173 169 170 175 188 197 198 201 204 206 209 204 198 199 199 197 204 211 211 216 222 221 200 184 188 184 164 161 160 153 148 144 137 133 133 132 132 132 130 127 124 119
171 173 170 167 165 160 157 153 148 144 139 136 139 147 153 160 169 173 174 172 166 156 151 153 154 162 177 189 201 207 209 209 205 199 202 206 203 203 207 209 215 227 226 213 201 197 188 171 162 160 155 148 142 138 136 134 133 133 133 132 129 124 123
174 175 171 164 157 151 148 144 141 137 131 129 133 139 144 151 162 171 178 177 165 157 156 160 167 171 177 184 191 196 200 202 204 203 205 209 209 209 214 207 202 221 227 210 214 220 204 188 166 156 155 152 144 141 141 138 137 140 142 140 135 133 134
176 175 169 160 150 145 142 139 136 131 125 122 124 128 135 144 156 167 177 182 174 162 161 163 173 187 191 190 187 187 190 195 200 205 208 210 211 210 219 216 202 212 224 200 203 222 209 201 181 160 151 152 149 144 142 141 138 141 148 148 146 145 143
176 173 166 157 148 141 138 136 129 122 116 112 110 109 118 134 148 159 168 174 172 162 159 169 182 195 202 198 197 197 197 201 200 202 207 209 211 209 212 215 207 205 212 203 193 194 196 200 192 177 161 151 150 148 146 145 141 140 150 152 153 150 143
173 168 162 157 149 140 136 134 126 118 112 105 99 94 102 124 137 148 159 164 168 166 167 183 196 199 200 196 198 200 200 205 206 207 213 213 212 210 207 208 206 200 199 199 187 177 187 196 197 197 186 166 155 154 155 153 148 149 154 152 149 148 142
169 163 160 157 150 140 136 135 127 120 112 101 95 89 97 120 131 141 153 159 163 165 167 181 194 200 198 192 192 195 194 198 203 210 223 225 218 212 207 203 200 196 191 191 182 172 177 189 196 206 200 182 162 162 165 162 159 159 157 151 146 146 144
166 159 157 156 152 144 140 140 132 125 117 105 97 89 92 115 130 139 150 156 158 156 157 166 182 193 194 192 193 193 190 186 193 207 221 229 224 213 206 200 196 194 189 186 183 174 170 180 195 208 201 191 162 172 174 168 165 164 157 153 148 150 152
164 158 158 161 158 150 145 142 137 130 123 112 104 91 91 112 131 143 150 155 154 151 153 158 173 188 188 191 195 198 195 184 186 198 208 219 224 217 210 203 199 195 189 185 182 175 168 173 189 204 202 196 145 181 183 169 161 162 159 157 157 160 162
164 160 162 166 161 154 148 141 139 135 128 120 110 97 96 115 138 153 157 156 153 151 150 154 167 176 177 183 189 191 188 181 184 187 186 195 218 225 220 210 204 199 190 184 177 173 168 169 179 191 199 203 150 156 187 169 158 160 161 163 166 168 169
167 165 164 165 160 156 150 142 140 138 132 126 115 102 105 122 145 164 168 160 155 154 149 152 163 160 158 166 171 174 171 164 160 146 131 113 80 249 221 205 204 200 190 182 175 172 167 163 171 180 191 203 172 133 175 168 156 158 162 166 171 174 175
170 168 166 164 162 159 153 144 141 140 135 131 119 111 116 127 143 164 173 165 159 159 152 150 158 155 148 152 155 161 159 147 142 132 112 88 67 56 67 176 193 193 188 181 173 170 166 160 165 175 185 193 167 145 160 162 156 159 164 168 175 181 182
174 174 172 167 164 162 155 146 143 140 139 137 124 121 128 132 142 156 163 157 159 163 157 150 159 157 152 151 152 156 156 146 143 135 111 91 75 56 50 100 171 180 181 177 169 168 167 161 162 170 180 188 178 160 159 163 165 168 173 176 180 187 190
179 179 175 167 164 161 153 147 145 142 141 137 124 124 133 138 146 153 156 150 154 163 160 162 171 167 161 157 155 156 157 154 149 136 116 101 86 58 46 74 150 166 168 166 165 167 167 164 165 169 178 185 186 180 176 177 180 184 195 198 193 198 202
184 181 172 165 162 158 154 152 148 143 141 134 122 124 139 146 148 154 152 148 153 162 164 182 186 178 172 166 161 159 158 159 157 144 127 116 111 86 59 80 144 157 160 161 162 164 163 162 165 170 176 182 188 195 199 203 206 208 215 219 213 211 215
187 180 168 164 164 161 159 156 149 142 137 131 125 123 129 133 133 138 144 150 157 157 156 172 180 181 182 176 169 165 162 164 163 156 146 140 136 121 92 97 141 154 158 160 160 159 158 158 163 170 177 186 199 209 219 229 234 235 234 235 234 230 227
187 176 166 167 169 166 163 158 149 142 136 130 125 122 121 118 114 111 114 126 137 139 142 150 151 162 176 183 183 178 172 173 173 169 168 166 159 146 125 114 140 154 158 160 158 156 159 164 171 177 184 199 217 227 235 243 247 251 249 246 246 247 244
187 180 176 175 173 170 164 156 148 141 135 129 126 125 123 119 114 108 103 101 104 106 108 121 132 144 163 178 190 193 192 193 189 187 188 189 185 173 157 141 145 156 161 163 163 163 164 169 177 191 211 229 239 244 249 253 256 259 259 255 251 248 248
185 186 184 179 176 171 162 156 151 148 143 136 131 131 130 128 126 120 113 105 100 97 95 98 106 120 148 170 180 186 192 196 198 200 200 201 207 201 185 172 165 164 165 165 168 170 174 183 198 222 240 248 253 255 257 259 260 260 261 259 255 251 250
181 181 180 178 174 169 163 158 152 150 149 145 141 141 145 149 148 140 130 123 120 121 120 118 114 112 123 150 167 174 174 176 187 197 200 202 206 204 196 192 191 188 186 185 189 193 200 210 217 225 233 240 250 260 264 265 265 262 260 257 255 253 250
176 177 180 178 172 168 168 168 168 172 180 189 181 165 167 177 171 161 152 143 144 150 153 151 141 126 121 131 149 166 173 164 162 176 184 188 191 190 190 198 206 210 213 215 219 223 229 233 233 229 227 231 240 253 262 269 273 273 271 267 262 259 255
172 176 180 182 183 192 200 207 223 230 224 220 208 188 187 194 186 177 171 166 167 172 171 165 158 152 142 136 139 151 165 172 168 172 178 182 191 195 195 201 210 218 224 230 234 237 239 241 242 240 239 243 250 257 262 265 269 270 271 270 269 268 266
183 191 195 199 218 234 223 211 211 209 199 193 189 190 198 202 195 190 190 190 194 197 197 195 184 175 170 162 156 154 161 171 178 187 195 202 209 212 212 215 220 224 229 234 239 244 246 248 250 251 254 259 262 265 267 268 270 271 270 269 269 269 269
190 199 201 202 206 203 195 189 184 182 181 182 186 194 201 201 200 203 205 208 215 218 220 223 222 220 218 209 200 192 185 186 189 194 201 206 211 215 221 227 231 234 238 241 244 248 253 256 258 260 262 264 265 266 267 269 270 270 269 267 266 266 267
183 188 188 189 190 187 186 186 184 185 187 188 191 199 204 206 207 209 214 220 226 231 233 233 234 238 242 246 247 243 236 231 225 222 223 223 225 227 229 231 234 237 240 242 245 249 253 256 259 261 261 261 262 263 264 267 269 269 268 267 267 268 270
166 167 169 176 183 186 187 185 184 190 199 203 204 206 211 216 219 220 224 228 232 236 239 240 240 243 248 251 255 257 256 256 254 251 250 249 248 248 247 247 247 247 247 247 248 251 254 257 259 261 261 261 263 264 264 266 269 271 271 272 273 273 273
141 142 147 158 168 174 179 182 183 191 206 214 213 212 215 223 232 237 239 241 244 246 249 252 255 258 262 265 267 268 268 267 266 265 264 264 264 264 264 264 262 262 261 261 261 262 262 262 264 264 265 266 267 268 267 268 270 271 271 273 274 274 275
123 127 136 144 149 153 159 170 176 181 198 211 212 214 219 225 234 240 244 248 251 253 254 257 261 265 268 270 271 273 273 272 271 269 268 269 270 270 271 271 271 271 271 271 270 270 269 269 269 269 270 271 271 270 269 269 269 269 269 270 270 272 274
118 121 127 131 132 135 138 143 151 157 169 184 191 199 206 214 224 232 241 248 252 257 261 264 266 268 269 271 271 272 272 272 272 272 271 272 273 274 275 275 276 275 275 273 272 271 270 271 271 271 271 271 270 270 270 269 268 268 268 269 269 270 270
120 122 121 118 117 123 128 131 140 152 168 187 203 218 227 236 243 247 253 259 262 265 269 271 274 275 276 276 275 274 274 274 273 273 273 274 275 276 277 278 278 278 278 276 275 273 273 273 272 272 271 269 268 269 269 268 267 266 266 267 268 268 267
110 116 117 114 110 117 122 106 98 228 243 246 251 260 265 268 271 272 273 274 275 276 277 278 279 280 281 281 281 281 280 279 278 277 276 275 275 274 274 274 274 275 275 275 274 274 273 273 273 272 271 270 271 271 270 267 265 265 265 265 266 266 265
53 58 64 54 23 344 304 308 311 309 306 300 293 289 286 284 283 283 283 284 284 285 285 285 285 284 284 283 284 284 283 283 282 281 280 279 277 276 275 273 271 270 270 270 270 270 270 270 269 267 267 268 269 268 265 262 261 261 261 262 262 263 262
15 6 354 342 329 316 304 301 303 304 305 305 303 301 298 295 293 291 290 290 290 290 291 291 291 291 290 288 287 286 285 285 285 284 283 282 281 280 279 277 275 273 271 270 269 269 269 269 268 267 268 268 268 267 265 262 261 261 261 262 263 264 264
20 1 348 335 323 316 311 305 302 301 300 300 301 301 300 299 297 296 295 294 293 293 293 293 294 293 293 293 291 289 288 286 286 286 285 284 283 283 282 281 280 279 277 275 273 271 269 268 267 268 268 267 267 267 266 265 263 263 264 264 265 267 268
21 5 352 341 331 323 317 310 306 304 302 301 301 300 300 299 297 296 296 294 293 293 292 291 291 291 291 291 291 290 288 287 285 284 284 283 283 282 281 281 280 280 279 278 276 275 272 270 268 267 265 263 262 262 262 262 263 263 263 263 265 267 269
Height
1534 1536 1537 1539 1541 1542 1543 1545 1546 1546 1547 1548 1549 1550 1551 1552 1552 1553 1554 1554 1555 1556 1557 1558 1558 1559 1560 1561 1562 1563 1564 1565 1566 1568 1568 1569 1570 1571 1572 1573 1574 1574 1575 1575 1576 1576 1577 1578 1579 1579 1580 1580 1580 1581 1582 1582 1583 1584 1585 1586 1586 1587 1587
1534 1536 1537 1538 1540 1542 1543 1544 1545 1546 1547 1548 1549 1550 1550 1551 1552 1552 1553 1554 1555 1556 1557 1558 1558 1559 1560 1561 1562 1563 1563 1564 1566 1567 1568 1569 1570 1571 1572 1573 1574 1574 1575 1575 1576 1576 1576 1577 1578 1579 1579 1580 1581 1581 1582 1583 1584 1585 1586 1586 1587 1587 1588
1533 1535 1537 1538 1540 1542 1543 1544 1545 1546 1547 1548 1548 1549 1549 1550 1551 1552 1553 1554 1554 1555 1556 1557 1558 1559 1559 1560 1561 1562 1563 1564 1565 1566 1567 1568 1569 1570 1571 1572 1573 1574 1574 1574 1575 1576 1577 1577 1578 1579 1580 1580 1581 1581 1582 1583 1584 1585 1586 1586 1587 1588 1588
1532 1534 1536 1538 1539 1541 1542 1543 1544 1545 1546 1547 1548 1548 1549 1550 1551 1551 1552 1553 1554 1555 1556 1557 1558 1558 1559 1560 1561 1562 1563 1563 1564 1566 1566 1567 1568 1569 1570 1571 1572 1573 1574 1574 1574 1575 1576 1577 1578 1579 1581 1582 1582 1582 1583 1583 1584 1585 1586 1586 1587 1588 1588
1532 1534 1536 1537 1538 1540 1541 1543 1544 1545 1546 1546 1547 1548 1548 1549 1550 1551 1552 1553 1554 1554 1555 1556 1557 1558 1559 1560 1560 1561 1562 1563 1564 1565 1566 1567 1567 1568 1569 1570 1571 1572 1572 1573 1574 1575 1576 1577 1578 1579 1581 1582 1583 1583 1583 1584 1584 1585 1586 1586 1587 1588 1588
1532 1534 1535 1536 1537 1539 1541 1542 1544 1545 1545 1546 1547 1547 1548 1549 1549 1550 1551 1552 1553 1554 1555 1556 1557 1557 1558 1559 1560 1561 1561 1562 1563 1564 1565 1566 1567 1567 1568 1569 1570 1571 1571 1572 1573 1574 1576 1577 1578 1579 1581 1582 1583 1583 1584 1584 1585 1585 1586 1586 1587 1588 1589
1532 1534 1535 1536 1537 1539 1541 1542 1543 1544 1545 1545 1546 1547 1547 1548 1549 1550 1551 1552 1553 1554 1554 1555 1556 1557 1558 1558 1559 1560 1561 1561 1562 1563 1564 1565 1566 1566 1567 1568 1569 1570 1571 1572 1573 1574 1575 1577 1577 1578 1580 1582 1583 1584 1584 1585 1585 1586 1586 1587 1587 1588 1589
1532 1533 1534 1536 1537 1539 1541 1542 1543 1544 1544 1545 1545 1546 1547 1548 1548 1549 1550 1551 1552 1553 1554 1554 1555 1556 1557 1558 1559 1560 1560 1561 1562 1562 1563 1564 1565 1566 1566 1567 1568 1569 1570 1571 1572 1573 1574 1576 1577 1578 1578 1580 1582 1584 1584 1585 1585 1586 1586 1587 1588 1588 1589
1532 1533 1534 1536 1537 1539 1540 1541 1542 1543 1544 1544 1545 1546 1546 1547 1548 1549 1550 1551 1552 1553 1553 1554 1554 1555 1556 1557 1558 1559 1560 1560 1561 1562 1563 1563 1564 1565 1566 1567 1568 1568 1569 1570 1571 1572 1573 1575 1576 1577 1578 1579 1580 1582 1584 1585 1586 1586 1586 1587 1588 1588 1589
1531 1532 1534 1535 1537 1538 1539 1541 1542 1542 1543 1544 1545 1545 1546 1546 1547 1548 1549 1550 1551 1552 1553 1553 1554 1554 1555 1557 1557 1558 1559 1560 1560 1561 1562 1563 1563 1564 1565 1566 1567 1568 1569 1570 1571 1572 1573 1574 1576 1577 1578 1579 1580 1581 1582 1583 1585 1586 1586 1587 1588 1589 1589
1530 1532 1534 1535 1536 1537 1539 1540 1541 1542 1543 1544 1544 1545 1546 1546 1547 1548 1549 1550 1551 1551 1552 1553 1553 1554 1555 1556 1557 1557 1558 1559 1560 1561 1562 1562 1563 1564 1564 1565 1566 1567 1568 1569 1570 1571 1572 1574 1575 1577 1578 1579 1580 1581 1581 1582 1584 1585 1586 1587 1587 1588 1589
1530 1531 1533 1535 1536 1537 1538 1540 1541 1542 1543 1544 1544 1545 1546 1546 1547 1548 1548 1549 1550 1551 1552 1552 1553 1553 1554 1555 1556 1557 1558 1558 1559 1560 1561 1562 1563 1563 1564 1565 1565 1566 1567 1568 1569 1571 1572 1573 1575 1576 1578 1579 1580 1580 1580 1582 1583 1584 1585 1586 1587 1588 1589
1529 1531 1533 1535 1536 1537 1538 1540 1541 1542 1543 1544 1544 1545 1546 1546 1547 1547 1548 1549 1550 1550 1551 1552 1553 1553 1554 1555 1555 1556 1557 1558 1559 1560 1561 1562 1562 1563 1563 1564 1564 1565 1566 1568 1569 1570 1571 1573 1574 1576 1577 1579 1579 1579 1580 1582 1583 1584 1585 1586 1587 1588 1588
1528 1531 1532 1534 1535 1536 1538 1539 1541 1542 1542 1543 1544 1545 1545 1546 1546 1547 1547 1548 1549 1550 1551 1552 1553 1553 1554 1555 1555 1556 1557 1558 1559 1560 1561 1562 1562 1563 1563 1563 1563 1564 1566 1567 1568 1570 1571 1572 1574 1575 1577 1579 1579 1580 1580 1582 1583 1584 1585 1585 1586 1587 1588
1528 1530 1531 1533 1534 1536 1538 1539 1540 1541 1542 1543 1544 1544 1545 1545 1546 1546 1547 1548 1549 1550 1551 1552 1552 1553 1554 1554 1555 1556 1557 1558 1559 1560 1561 1562 1562 1562 1563 1563 1563 1564 1565 1567 1568 1569 1571 1572 1574 1575 1577 1578 1580 1580 1581 1582 1583 1584 1585 1585 1586 1586 1587
1527 1529 1531 1532 1534 1535 1537 1538 1539 1540 1541 1542 1543 1544 1544 1545 1545 1546 1547 1548 1549 1550 1551 1551 1552 1553 1553 1554 1555 1556 1557 1558 1559 1560 1561 1561 1562 1563 1563 1563 1563 1564 1565 1566 1567 1569 1570 1572 1573 1575 1577 1578 1579 1580 1581 1582 1583 1584 1585 1585 1586 1586 1587
1526 1528 1530 1532 1533 1535 1537 1538 1539 1540 1541 1541 1542 1543 1544 1544 1545 1546 1547 1548 1549 1550 1551 1551 1552 1552 1553 1554 1555 1556 1557 1558 1558 1559 1560 1561 1562 1562 1563 1563 1563 1564 1565 1566 1567 1569 1570 1572 1573 1575 1576 1578 1579 1580 1581 1582 1583 1584 1584 1585 1585 1586 1586
1525 1527 1529 1532 1533 1535 1536 1537 1538 1539 1540 1541 1542 1543 1544 1544 1545 1546 1547 1548 1549 1550 1550 1551 1551 1552 1553 1554 1555 1555 1556 1557 1558 1559 1560 1561 1562 1562 1563 1563 1563 1564 1565 1566 1567 1568 1570 1572 1573 1575 1576 1577 1578 1579 1580 1581 1581 1582 1583 1584 1585 1585 1585
1524 1526 1529 1531 1533 1534 1535 1537 1537 1538 1539 1540 1541 1543 1544 1545 1545 1546 1547 1548 1549 1549 1550 1550 1551 1552 1553 1553 1554 1555 1556 1557 1558 1559 1559 1560 1561 1562 1563 1563 1564 1564 1565 1566 1567 1569 1570 1571 1573 1574 1575 1577 1577 1578 1579 1579 1580 1581 1582 1583 1583 1584 1584
1525 1528 1529 1531 1532 1533 1534 1536 1537 1538 1539 1540 1542 1543 1544 1545 1546 1546 1547 1548 1549 1549 1550 1551 1551 1552 1552 1553 1554 1555 1555 1556 1557 1558 1559 1560 1561 1562 1563 1563 1564 1565 1565 1566 1567 1568 1570 1571 1572 1573 1574 1575 1576 1577 1577 1578 1579 1579 1580 1581 1582 1582 1583
1524 1526 1528 1529 1531 1532 1533 1535 1536 1538 1539 1540 1542 1543 1544 1545 1546 1546 1547 1548 1548 1549 1550 1551 1551 1552 1552 1553 1553 1554 1555 1556 1557 1558 1559 1559 1561 1562 1562 1563 1564 1565 1565 1566 1567 1568 1569 1570 1572 1572 1573 1574 1575 1575 1576 1576 1577 1577 1578 1579 1580 1581 1581
1522 1525 1528 1529 1530 1531 1533 1534 1536 1537 1539 1540 1541 1543 1544 1546 1546 1546 1547 1547 1548 1549 1550 1550 1551 1551 1551 1552 1553 1553 1554 1555 1556 1557 1558 1559 1560 1561 1562 1563 1563 1564 1565 1566 1567 1568 1569 1570 1571 1571 1572 1573 1573 1574 1574 1575 1575 1575 1576 1577 1577 1578 1579
1522 1525 1527 1528 1529 1531 1533 1534 1536 1537 1538 1539 1540 1542 1544 1546 1546 1546 1546 1547 1547 1548 1549 1550 1550 1551 1551 1551 1552 1553 1553 1554 1555 1556 1557 1558 1559 1560 1561 1562 1563 1564 1564 1565 1566 1567 1568 1569 1569 1570 1570 1571 1572 1572 1573 1573 1574 1574 1575 1575 1575 1576 1576
1522 1524 1526 1527 1529 1530 1532 1533 1534 1536 1537 1538 1539 1541 1544 1545 1545 1546 1546 1546 1547 1548 1549 1549 1550 1550 1551 1551 1552 1552 1553 1554 1555 1556 1557 1558 1559 1559 1560 1561 1562 1563 1563 1564 1565 1566 1566 1567 1568 1568 1569 1569 1570 1570 1571 1572 1572 1573 1573 1574 1574 1574 1575
1521 1524 1526 1527 1528 1530 1531 1532 1533 1534 1536 1537 1539 1541 1543 1544 1544 1545 1545 1546 1547 1547 1548 1549 1549 1550 1550 1551 1552 1552 1553 1554 1554 1555 1556 1557 1558 1559 1559 1560 1561 1562 1563 1563 1564 1564 1565 1566 1566 1567 1567 1568 1568 1569 1569 1570 1571 1571 1572 1572 1572 1573 1573
1520 1523 1525 1526 1527 1529 1530 1531 1532 1534 1535 1537 1538 1540 1542 1542 1543 1544 1544 1545 1546 1547 1548 1548 1549 1549 1550 1550 1551 1552 1553 1553 1554 1555 1555 1556 1557 1557 1558 1559 1559 1560 1561 1562 1562 1563 1564 1564 1564 1565 1565 1565 1566 1567 1567 1568 1568 1569 1569 1570 1570 1570 1570
1521 1523 1524 1525 1527 1528 1529 1531 1532 1533 1535 1536 1537 1539 1540 1541 1542 1542 1543 1544 1545 1546 1547 1547 1548 1548 1549 1549 1550 1551 1552 1553 1553 1554 1555 1555 1556 1556 1557 1557 1558 1558 1559 1560 1561 1561 1562 1562 1562 1563 1563 1563 1563 1564 1565 1565 1566 1566 1567 1567 1567 1567 1568
1522 1523 1525 1526 1527 1529 1530 1531 1532 1533 1534 1535 1537 1538 1539 1540 1541 1541 1542 1543 1544 1545 1546 1546 1547 1547 1548 1548 1549 1550 1550 1551 1552 1553 1554 1554 1555 1555 1556 1556 1556 1557 1557 1558 1559 1559 1559 1559 1560 1560 1560 1560 1561 1561 1562 1562 1563 1563 1564 1564 1564 1565 1565
1523 1525 1526 1527 1528 1529 1530 1531 1532 1533 1534 1535 1537 1538 1539 1539 1540 1541 1541 1542 1543 1544 1544 1545 1545 1546 1546 1547 1547 1548 1549 1550 1550 1551 1552 1552 1553 1553 1554 1554 1555 1555 1556 1557 1557 1557 1557 1557 1557 1557 1557 1557 1557 1558 1558 1559 1559 1559 1560 1560 1560 1561 1561
1524 1525 1527 1528 1529 1530 1531 1532 1532 1533 1534 1535 1536 1537 1538 1539 1540 1540 1541 1541 1542 1542 1543 1543 1543 1544 1544 1545 1545 1546 1547 1547 1548 1549 1549 1550 1550 1551 1551 1552 1552 1553 1553 1554 1554 1554 1554 1554 1554 1554 1554 1554 1554 1554 1555 1555 1555 1555 1556 1556 1556 1556 1557
1526 1527 1527 1528 1529 1530 1531 1532 1533 1534 1534 1535 1536 1537 1537 1538 1539 1539 1540 1540 1540 1541 1541 1541 1541 1542 1542 1543 1543 1544 1544 1545 1545 1546 1547 1547 1547 1548 1548 1548 1549 1549 1550 1551 1551 1550 1550 1550 1550 1550 1550 1550 1550 1550 1551 1551 1551 1551 1551 1551 1551 1552 1552
1527 1527 1528 1529 1530 1531 1532 1533 1533 1534 1535 1535 1536 1536 1537 1537 1538 1538 1538 1539 1539 1539 1539 1539 1540 1540 1540 1541 1541 1542 1542 1543 1543 1543 1544 1544 1544 1545 1545 1545 1545 1546 1546 1546 1546 1546 1546 1546 1546 1546 1546 1546 1545 1545 1547 1547 1546 1546 1547 1547 1547 1547 1547
1527 1528 1528 1529 1530 1531 1532 1532 1533 1534 1534 1535 1535 1536 1536 1536 1536 1537 1537 1537 1537 1537 1537 1537 1537 1538 1538 1538 1539 1539 1539 1540 1540 1540 1541 1541 1541 1541 1542 1542 1542 1542 1542 1542 1542 1542 1542 1542 1542 1542 1542 1541 1541 1542 1542 1542 1541 1542 1542 1542 1542 1543 1543
1527 1527 1528 1529 1529 1530 1531 1531 1532 1533 1533 1534 1534 1534 1535 1535 1535 1535 1535 1535 1535 1534 1534 1534 1534 1534 1535 1535 1536 1536 1536 1536 1536 1536 1536 1536 1537 1537 1537 1538 1538 1538 1538 1538 1538 1538 1538 1538 1537 1537 1537 1538 1538 1538 1538 1537 1537 1537 1537 1537 1538 1538 1538
1527 1528 1528 1528 1529 1529 1530 1530 1531 1531 1532 1532 1532 1532 1533 1533 1533 1533 1533 1533 1532 1532 1532 1531 1531 1531 1531 1531 1532 1532 1532 1531 1531 1531 1531 1531 1531 1531 1531 1532 1532 1533 1533 1533 1533 1533 1533 1533 1532 1532 1533 1533 1533 1533 1533 1533 1533 1533 1533 1533 1533 1533 1534
1528 1528 1528 1528 1528 1528 1529 1529 1529 1530 1530 1530 1531 1531 1531 1531 1531 1531 1530 1530 1530 1530 1530 1529 1529 1528 1527 1527 1527 1528 1528 1527 1526 1525 1525 1525 1525 1525 1525 1525 1525 1525 1526 1526 1527 1527 1528 1528 1527 1527 1528 1529 1528 1528 1528 1527 1527 1528 1528 1528 1528 1528 1529
1528 1528 1528 1528 1528 1528 1528 1528 1528 1528 1528 1529 1529 1529 1529 1528 1528 1528 1528 1528 1528 1528 1527 1527 1527 1526 1525 1525 1524 1523 1523 1522 1522 1521 1521 1520 1520 1520 1520 1520 1519 1520 1520 1520 1521 1521 1522 1522 1522 1522 1523 1523 1523 1523 1522 1522 1522 1523 1523 1523 1523 1523 1524